Lapse_Rate
-2.9 -3.1 -3.2 -3.4 -3.4 -3.5 -3.7 -3.9 -4.1 -4.3 -4.5 -4.7 -4.9 -4.8 -5.1 -5.5 -5.6 1.5 7.5 6.7 5.6 0.3 3.4 9.1 9.5 9.3 9.3 8.5 8.7 8.2 6.5 6.5 6.5 6.5 6.5 7.3 6.5 7.8 8.3 7.6 7.9 8.2 8.2 8.9 9.5
-2.2 -2.8 -3.3 -3.6 -3.5 -3.6 -3.8 -3.8 -4.0 -4.2 -4.6 -4.8 -4.8 -4.9 -5.0 -5.5 1.3 8.1 6.7 1.3 0.2 0.5 8.5 9.1 8.5 8.8 8.1 7.9 7.9 6.8 6.5 6.5 6.5 6.5 6.5 6.8 6.8 7.2 7.1 7.2 7.3 7.8 8.8 9.2 9.5
-1.9 -2.2 -2.8 -2.9 -3.1 -3.3 -3.5 -3.6 -3.9 -4.2 -4.6 -4.9 -4.8 -4.8 -5.0 -4.6 6.7 8.6 0.4 0.6 0.6 1.2 9.9 9.5 9.1 8.6 7.4 7.9 7.4 6.9 6.5 6.5 6.8 7.3 7.3 6.8 6.9 7.7 6.9 6.5 7.4 7.4 8.3 8.9 9.0
-1.2 -1.5 -2.2 -2.7 -2.9 -3.0 -3.3 -3.5 -3.8 -4.2 -4.5 -4.8 -4.8 -4.6 -4.5 3.3 6.5 8.8 0.5 -0.1 0.8 6.7 9.7 9.1 8.6 7.7 6.7 6.5 7.5 6.5 6.9 7.0 7.0 7.4 7.3 6.5 7.4 6.8 7.2 7.2 8.3 8.5 8.7 8.9 8.9
-0.8 -1.1 -1.6 -2.3 -2.7 -2.9 -3.1 -3.4 -3.8 -4.1 -4.4 -4.6 -4.5 -4.2 2.6 8.3 8.4 6.4 0.3 0.6 4.8 8.3 9.2 8.7 7.9 7.7 6.5 6.6 7.0 6.5 6.5 7.3 7.5 7.4 7.4 7.5 6.7 6.8 7.1 8.1 8.5 8.7 8.7 8.8 8.9
-0.6 -1.1 -1.6 -2.0 -2.4 -2.5 -2.8 -3.2 -3.6 -4.1 -4.2 -4.3 -4.2 -4.3 5.7 6.9 9.9 10.1 9.8 6.1 7.6 9.0 9.2 9.0 8.2 8.4 7.3 6.8 6.6 7.1 7.0 7.0 7.4 7.2 7.3 6.7 6.7 7.1 7.4 8.2 8.2 8.4 8.5 8.8 8.8
0.6 0.1 -1.1 -1.7 -2.3 -2.7 -2.9 -3.3 -3.6 -4.1 -4.1 -4.0 -3.7 0.8 8.6 8.4 10.1 10.3 10.0 9.7 9.8 9.7 8.9 9.4 9.1 8.1 7.9 6.5 7.7 7.2 6.5 6.5 6.5 6.9 6.6 7.4 6.5 6.5 7.7 8.0 7.9 8.1 8.4 8.5 8.7
0.9 0.4 -0.1 -1.1 -1.8 -2.4 -3.1 -3.6 -3.7 -3.8 -3.7 -3.4 -3.0 4.6 8.0 10.0 10.2 10.0 10.0 9.7 10.1 10.0 9.7 9.5 9.4 8.5 7.9 7.9 7.1 6.5 6.5 6.5 6.5 6.5 6.8 6.9 6.5 6.5 7.8 7.7 7.5 7.8 8.3 8.3 8.6
0.7 0.2 -0.2 -0.6 -0.9 -1.7 -2.9 -3.5 -3.7 -3.0 -2.5 -1.9 2.5 7.8 7.7 4.8 9.2 9.8 10.0 9.1 9.5 9.6 9.5 9.4 8.9 7.9 7.6 6.5 6.5 6.5 6.5 6.5 6.5 6.5 6.5 6.5 6.5 6.5 7.8 7.6 7.3 7.8 8.0 8.3 8.5
0.8 0.4 -0.2 -0.5 -0.8 -1.6 -2.7 -3.5 -0.2 -2.1 0.2 5.5 9.1 8.1 8.5 8.1 9.2 9.5 10.0 9.5 8.9 8.8 8.4 8.2 7.8 6.5 6.5 6.5 6.5 6.5 6.5 6.5 6.5 6.5 6.5 6.5 6.5 6.5 7.3 7.4 7.3 7.7 7.9 8.1 8.3
0.8 0.4 -0.1 -0.5 -1.0 -1.6 -1.1 7.6 7.9 8.3 9.1 8.0 8.0 7.8 8.1 9.3 9.5 9.1 9.7 9.1 8.7 8.0 6.5 7.3 6.5 6.5 6.5 6.5 6.5 6.5 6.5 6.5 6.5 6.5 6.5 6.5 6.5 6.5 6.9 7.2 7.1 7.5 7.8 8.0 8.2
0.8 0.4 -0.4 -0.8 -1.3 -1.9 -0.2 8.7 8.7 9.1 7.1 8.7 8.7 8.6 9.0 9.0 7.7 8.5 9.6 7.9 7.3 6.5 6.5 6.5 6.5 6.5 6.5 6.5 6.5 6.5 6.5 6.5 6.5 6.5 6.5 6.5 6.5 6.5 6.5 6.7 7.2 7.4 7.7 8.0 8.4
0.3 -0.0 -0.9 -1.4 -1.9 0.4 8.3 9.2 10.2 10.0 7.1 7.7 8.7 8.4 8.6 8.8 7.6 7.8 8.8 8.2 6.5 6.5 6.5 6.5 6.5 6.5 6.5 6.5 6.5 6.5 6.5 6.5 6.5 6.5 6.5 6.5 6.5 6.5 6.6 6.9 7.4 7.7 7.9 8.2 8.2
-0.1 -0.7 -1.4 -2.2 0.3 8.7 9.1 10.0 10.2 10.0 6.5 6.5 7.0 8.0 8.7 8.6 7.0 8.8 9.0 8.1 6.7 6.5 6.5 6.5 6.5 6.5 6.5 6.5 6.5 6.5 6.5 6.5 6.5 6.5 6.5 6.5 6.5 6.5 6.5 6.5 6.5 7.3 7.8 8.0 8.1
-0.3 -1.0 -1.9 -2.5 3.3 8.4 9.4 10.3 10.2 9.3 6.5 6.5 6.8 9.0 8.7 7.5 7.4 7.7 9.1 8.2 6.5 6.5 6.5 6.5 6.5 6.5 6.5 6.5 6.5 6.5 6.6 6.5 6.5 6.5 6.5 6.5 6.5 6.4 6.5 6.5 6.5 6.5 7.5 7.9 8.3
-0.7 -1.7 -2.6 3.2 2.3 7.2 10.2 10.1 9.4 6.5 6.5 6.5 6.9 6.5 6.6 7.0 7.2 7.8 7.8 8.5 8.0 6.5 6.5 6.5 7.1 6.5 6.5 6.5 6.5 6.5 6.5 6.5 6.5 6.5 6.5 6.5 6.5 6.5 6.5 6.5 6.5 6.7 7.5 7.8 8.2
-1.3 -3.0 -2.9 4.1 9.0 10.0 10.1 9.2 6.5 6.5 6.5 6.5 6.5 6.5 6.5 6.5 6.5 6.5 6.5 6.5 6.5 6.5 6.5 6.5 6.5 6.5 6.6 6.5 6.5 6.5 6.5 6.5 6.5 6.5 6.5 6.5 6.5 6.5 6.5 6.5 6.5 6.5 7.3 7.9 8.2
-1.8 -2.9 -0.1 2.7 9.1 7.0 9.4 6.7 6.5 6.5 6.5 6.5 6.5 6.5 6.5 6.5 6.5 6.5 6.5 6.5 6.5 6.5 6.5 6.5 6.5 6.5 6.5 6.5 6.5 6.5 6.5 6.5 6.5 6.5 6.5 6.5 6.5 6.5 6.5 6.6 7.3 7.4 7.7 7.9 8.2
-2.6 8.3 9.8 10.0 8.3 9.9 8.2 6.5 6.5 6.5 6.5 6.5 6.5 6.5 6.5 6.5 6.5 6.5 6.5 6.5 6.5 6.5 6.5 6.5 6.5 6.5 6.5 6.5 6.5 6.5 6.5 6.5 6.5 6.5 6.5 6.5 6.5 6.5 6.5 6.5 6.5 6.8 7.4 7.5 7.9
4.7 9.4 9.1 9.8 9.8 9.4 6.8 6.5 6.5 6.5 6.5 6.5 6.5 6.5 6.5 6.5 6.5 6.5 6.4 6.5 6.5 6.5 6.5 6.5 6.5 6.5 6.5 6.6 6.5 6.5 6.5 6.5 6.5 6.6 6.5 6.5 6.5 6.5 6.5 6.4 6.5 6.5 6.8 7.3 7.8
6.3 8.3 9.4 9.6 10.0 8.4 6.5 6.5 6.5 7.4 7.1 6.5 6.5 6.5 6.4 6.5 6.5 6.5 6.5 6.5 6.5 6.5 6.5 6.5 6.5 6.5 6.5 6.5 6.5 6.5 6.5 6.5 6.5 6.5 6.5 6.5 6.5 6.5 6.5 6.5 6.5 6.5 7.3 7.5 7.7
9.2 6.6 9.8 10.1 7.0 7.1 6.5 6.5 4.4 6.6 7.4 6.5 6.5 6.5 6.5 6.4 6.5 6.5 6.5 6.5 6.9 6.5 6.5 6.5 6.5 6.5 6.5 6.5 6.5 6.5 6.5 6.5 6.5 6.5 6.5 6.5 6.5 6.5 6.5 6.5 6.5 6.7 7.3 7.6 7.9
8.4 8.1 9.8 9.6 6.5 6.5 6.5 6.5 6.7 6.5 6.5 6.5 6.5 6.5 6.6 6.5 6.5 6.5 6.5 6.6 7.1 6.5 6.5 6.6 6.5 6.5 6.5 6.5 6.5 6.5 6.5 6.5 6.5 6.5 6.5 6.5 6.5 6.5 6.5 6.5 6.9 7.0 7.4 7.6 7.8
8.5 6.5 8.1 8.7 8.4 6.5 6.5 6.5 6.5 7.2 6.5 6.8 6.5 6.6 6.5 6.5 6.5 6.5 6.5 6.5 6.9 6.6 4.6 5.9 6.5 6.5 6.5 6.5 6.5 6.5 6.5 6.5 6.5 6.5 6.5 6.5 6.5 6.5 6.5 6.5 6.6 7.0 7.4 7.7 7.7
8.4 6.9 7.6 6.5 6.6 6.5 6.5 6.5 6.5 6.5 6.8 7.0 6.5 6.5 6.5 6.5 6.5 6.5 6.5 6.5 6.6 6.6 6.5 6.5 6.5 6.5 6.5 6.6 6.5 6.5 6.5 6.5 6.5 6.5 6.5 6.5 6.5 6.5 6.5 6.5 6.7 7.3 7.4 7.5 7.6
8.2 7.5 8.4 7.5 7.5 6.5 6.5 6.5 6.5 6.5 6.5 6.5 6.6 6.5 6.5 6.5 6.5 6.5 6.5 6.5 6.5 6.5 6.4 6.5 6.5 6.5 6.5 6.5 6.5 6.5 6.5 6.5 6.5 6.5 6.5 6.5 6.5 6.5 6.4 6.5 7.0 7.0 7.2 7.2 7.4
9.5 9.3 8.5 6.4 6.5 6.5 6.5 6.5 6.5 6.5 6.9 7.1 6.6 6.5 6.5 6.5 7.2 7.4 7.6 7.3 6.7 6.5 6.5 6.5 6.5 6.5 6.5 6.5 6.5 6.5 6.5 6.5 6.5 6.5 6.5 6.5 6.5 6.5 6.5 6.5 6.6 7.0 7.3 7.4 7.6
Wind_Speed
19 19 19 19 19 19 19 19 20 20 20 21 22 21 21 21 24 8 12 4 7 21 12 17 15 10 10 11 12 7 7 8 7 15 10 9 12 4 9 9 3 3 5 26 25
19 19 19 20 20 20 21 21 20 21 22 21 22 22 22 20 15 19 9 15 25 24 20 20 17 13 10 10 7 7 6 13 11 9 8 6 7 10 8 11 9 11 19 25 26
19 20 19 20 21 21 22 22 22 22 22 22 22 23 23 22 15 5 10 16 25 24 20 16 14 14 13 11 11 12 13 12 10 7 3 5 5 9 11 9 16 16 21 25 26
19 20 20 21 21 23 23 23 24 23 23 22 22 23 25 8 7 8 13 19 24 24 19 15 13 16 15 14 13 16 15 10 11 2 3 7 4 8 7 10 18 20 22 24 24
21 21 21 22 22 23 24 24 24 24 24 22 21 20 12 11 18 15 15 17 22 22 23 18 16 16 18 10 11 12 14 14 8 5 7 1 7 2 7 12 15 21 22 23 22
22 22 22 22 23 24 25 25 25 25 24 22 19 17 8 18 11 6 11 18 21 25 22 20 14 16 16 12 13 14 12 14 12 10 9 10 9 7 9 11 17 20 21 21 22
21 21 22 23 24 25 26 27 27 26 26 23 16 9 13 20 5 4 11 19 22 25 23 21 19 13 17 17 12 11 16 17 16 13 9 12 14 13 16 12 19 19 18 20 21
21 22 22 23 25 26 26 28 28 29 26 17 9 10 10 14 16 22 11 15 21 25 23 15 14 13 20 8 11 15 19 18 19 16 10 15 8 13 13 15 17 18 17 18 21
22 22 23 24 25 26 28 30 31 24 13 9 9 11 17 2 16 18 17 17 18 19 13 8 12 18 14 14 17 12 16 21 10 15 12 11 12 14 15 15 16 16 17 18 19
23 23 24 24 25 27 31 36 15 10 8 8 11 8 18 16 17 19 20 18 18 17 17 14 11 16 16 14 15 9 10 17 8 14 14 15 15 14 14 15 16 17 17 18 19
23 23 24 26 26 25 20 9 6 8 15 16 15 15 3 19 3 15 23 20 15 18 20 20 15 19 22 15 7 9 13 23 27 19 11 15 17 14 13 13 15 17 18 18 19
24 24 24 26 27 27 12 7 7 6 9 20 24 22 20 5 11 17 20 23 22 22 22 19 22 22 17 23 10 12 8 33 33 11 14 11 17 19 15 12 15 16 18 19 19
24 24 24 26 30 13 11 15 8 9 8 17 24 22 24 16 18 20 22 25 25 25 24 24 22 21 9 10 15 14 24 37 18 1 15 12 18 18 17 13 14 15 18 19 20
25 24 22 26 12 8 8 2 6 6 7 16 19 18 23 21 24 21 23 25 24 26 26 22 23 18 20 16 15 17 6 5 8 8 12 18 12 20 19 16 17 17 17 19 21
26 26 21 8 13 6 7 2 8 5 6 9 15 2 19 27 10 27 20 26 29 23 19 25 18 18 16 16 17 15 5 2 9 20 16 24 16 22 24 21 20 19 19 19 21
31 26 18 10 8 12 7 6 7 7 12 10 11 12 16 24 28 20 24 24 23 25 25 27 19 23 16 13 15 13 5 4 12 15 15 19 17 14 23 22 22 20 21 21 21
32 30 7 8 1 1 5 7 7 10 6 10 14 17 19 19 26 24 28 26 24 23 23 25 23 18 14 7 6 15 11 1 2 8 13 19 24 10 28 24 23 25 22 23 22
35 24 9 9 6 7 6 9 11 10 23 4 3 14 17 17 24 27 27 25 29 26 18 20 19 22 20 15 17 11 13 5 5 12 15 24 16 21 2 17 22 23 25 24 24
36 6 5 6 10 5 8 12 10 16 5 11 9 12 15 14 13 25 25 27 28 27 26 20 23 24 17 11 16 6 10 8 7 23 18 14 15 9 21 23 14 14 21 24 23
7 5 3 1 8 7 9 17 17 11 6 11 14 8 15 19 18 24 24 26 27 30 27 22 16 24 20 18 11 13 19 8 3 7 9 13 15 15 15 14 16 18 12 10 14
6 4 5 6 8 8 11 17 18 18 6 12 15 4 12 6 11 20 26 23 29 29 27 27 18 15 21 20 18 10 13 8 14 5 4 2 10 19 21 21 18 18 17 15 12
5 4 7 6 7 9 12 17 9 14 12 13 11 14 9 8 12 15 13 24 22 27 31 29 18 14 22 18 20 23 18 20 10 16 2 8 10 21 12 4 10 14 11 8 4
6 5 6 6 6 8 11 15 11 15 17 17 17 15 13 9 6 12 12 13 23 24 28 24 22 12 20 31 25 24 22 19 20 7 10 5 7 24 10 4 7 14 11 9 8
5 4 5 8 12 11 12 11 14 11 12 17 14 16 15 15 13 7 11 11 6 14 7 20 24 23 12 21 17 23 19 21 20 14 9 11 14 17 29 7 14 8 9 11 9
4 5 4 7 5 7 12 15 16 12 6 6 9 16 18 16 17 16 15 14 9 13 14 18 24 26 23 15 17 21 23 27 20 21 19 16 11 10 22 29 10 10 11 10 9
7 5 10 13 15 14 12 13 15 14 3 16 12 15 7 14 14 14 10 16 13 19 18 20 20 23 23 17 24 21 23 25 27 25 24 21 9 18 9 25 1 6 12 10 10
7 7 6 11 13 9 7 9 8 11 13 16 11 8 9 8 13 18 16 18 15 12 10 22 18 20 19 28 22 30 31 24 20 23 25 19 20 14 8 8 36 6 6 11 11
Wind_Direction
349 347 345 343 341 340 337 334 331 328 328 327 324 321 317 315 303 235 250 258 168 163 159 172 194 206 219 248 248 218 285 323 66 92 118 139 115 172 59 121 134 102 80 137 149
346 345 342 340 338 337 334 331 329 326 325 324 321 319 318 320 290 265 222 128 146 168 182 181 191 202 217 243 243 232 100 283 37 70 83 136 146 131 192 143 128 104 112 136 154
344 342 339 337 336 333 330 327 326 324 322 322 321 320 318 317 275 258 158 152 165 180 197 191 192 202 228 245 240 272 266 318 99 45 323 118 236 144 226 166 144 136 142 150 158
342 340 337 335 332 330 327 325 324 322 319 321 321 321 315 274 284 115 169 160 170 190 202 199 210 209 231 232 248 255 279 266 314 79 289 237 183 178 226 80 123 136 153 159 167
340 338 336 332 330 327 325 323 320 318 315 316 317 322 313 242 252 135 156 166 178 200 211 203 209 222 242 263 260 253 272 278 256 251 268 137 252 207 199 108 122 141 157 166 174
337 335 334 331 328 326 322 320 316 313 310 309 309 309 248 260 267 159 198 170 187 199 218 212 215 221 257 280 266 298 309 289 256 236 204 242 229 190 174 130 129 153 164 171 176
336 333 331 330 328 324 320 317 313 308 303 300 294 257 263 249 307 268 217 191 200 202 215 214 224 233 236 240 233 272 275 260 230 220 215 214 213 186 132 173 147 166 169 174 179
335 332 331 329 326 322 318 313 307 303 298 288 258 232 258 258 235 247 243 204 202 204 228 215 232 252 246 300 256 240 254 252 194 198 187 210 221 149 159 166 163 172 172 177 181
333 330 328 327 324 320 316 308 301 292 283 248 211 226 259 120 218 232 219 205 199 209 220 242 227 233 227 237 245 230 252 228 171 182 156 197 197 144 175 167 170 174 174 180 181
331 328 326 324 322 320 316 296 282 290 235 217 268 236 244 226 220 216 205 219 196 197 206 208 213 233 235 244 239 235 315 328 289 166 194 188 130 151 179 175 171 175 175 182 184
329 325 324 321 318 317 322 299 218 201 217 226 197 210 253 213 241 206 191 206 210 206 209 201 214 223 236 230 128 92 336 299 280 225 186 195 141 160 178 182 172 173 177 185 187
327 325 319 315 314 311 292 255 355 346 279 230 247 252 260 261 220 214 194 196 208 212 215 209 227 231 233 119 79 75 279 266 273 145 213 206 163 164 180 194 172 177 178 185 186
322 320 317 313 311 293 239 271 335 305 258 256 232 228 230 219 238 203 188 199 205 216 214 228 214 227 201 216 207 175 194 242 265 247 213 229 187 163 168 197 171 182 179 189 187
318 316 315 318 296 338 269 355 237 281 270 243 209 221 217 216 228 247 190 204 214 217 221 223 241 224 207 226 217 230 353 47 301 340 211 209 212 177 170 195 183 184 179 188 187
318 314 309 291 311 262 20 275 311 247 269 115 159 98 199 201 201 210 201 212 220 207 220 228 219 226 239 218 217 260 92 5 287 292 246 195 240 184 180 189 185 192 180 184 184
317 313 304 253 219 262 315 285 260 232 242 161 152 194 196 200 225 189 209 213 219 233 223 239 204 234 200 230 231 97 110 42 279 293 278 224 213 211 185 181 187 193 184 187 180
321 319 269 274 92 106 245 227 214 242 154 194 181 181 200 191 216 224 192 200 211 216 230 222 225 211 243 147 153 164 191 91 247 247 242 205 225 180 252 179 186 184 192 188 184
320 315 177 230 247 254 235 219 238 235 248 50 306 183 203 206 203 216 186 204 209 212 222 212 209 188 219 168 214 203 200 179 177 246 220 245 207 221 142 168 185 197 185 188 193
312 216 221 148 237 237 223 220 228 258 353 311 217 236 213 231 201 214 209 207 204 217 231 204 216 188 191 189 211 116 200 102 80 273 269 237 192 262 164 216 178 210 186 185 190
304 257 98 151 191 224 230 243 242 284 349 299 261 230 237 194 207 202 208 211 214 209 229 241 216 192 168 209 144 143 133 93 124 300 249 237 224 214 168 182 208 180 185 182 195
260 251 86 148 188 219 232 233 245 269 235 270 280 294 269 294 230 225 213 218 212 207 219 241 250 190 155 199 185 190 168 188 163 187 295 355 292 207 185 191 183 189 187 174 201
288 275 131 186 218 220 242 248 277 287 277 242 276 301 300 320 269 257 252 219 211 217 206 229 219 192 189 195 218 189 208 198 216 182 208 312 272 316 67 161 156 141 107 119 124
292 302 157 217 260 248 226 257 268 258 263 253 244 251 264 264 279 257 266 253 224 208 215 211 238 222 190 220 201 202 209 202 241 135 180 222 265 314 288 77 104 123 133 138 117
284 282 153 202 266 278 300 297 272 237 259 270 270 265 260 257 256 274 263 267 291 259 355 217 228 233 220 242 193 203 213 203 220 236 195 229 257 306 295 231 138 135 138 131 122
300 12 18 298 288 333 305 294 297 283 206 280 251 246 253 247 245 245 248 269 247 253 266 243 229 238 230 182 259 218 201 222 206 228 243 220 204 259 279 311 224 164 153 144 136
334 344 342 289 266 268 264 261 267 281 271 268 228 283 242 246 260 251 270 236 246 200 222 232 232 245 243 215 165 275 269 203 209 213 224 246 215 208 292 345 242 203 161 158 148
357 329 295 285 268 279 285 331 321 337 289 261 303 314 257 307 340 322 312 310 313 314 251 229 231 231 231 246 208 195 216 218 213 216 221 212 230 184 89 50 287 167 177 160 147